FW2255 Woodbridge VA US current weather conditions

sailwx.info

Wind from 019 at 1 knots gusting 5

Air temperature 7.2° C
Dewpoint -5.2° C

Last reported at 2020-Jan-28 22:00 UTC.
Time now 2020-Jan-28 23:14 UTC

Location: N 38°37' W 077°16'.
View on Google Maps.

See reports from other nearby stations

  
Tides and Currents Weather Stations Pressure Air Temp Water Temp Dewpoint Dewpoint Depression Visibility Wind Speed Wind Dir Waves Ship Positions
date/time (UTC)wind fromknots sea level pressurealtimeterstation pressurevisibilityair tempwater tempwave heightnotes
2020-Jan-28 22:00 019 1 gusting 5 7.2
2020-Jan-28 21:46 332 1 gusting 7 7.2
2020-Jan-28 21:31 327 1 gusting 7 7.2
2020-Jan-28 21:15 267 7.2
2020-Jan-28 21:00 313 0 gusting 8 7.2
2020-Jan-28 20:46 254 1 gusting 6 7.2
2020-Jan-28 20:31 299 2 gusting 6 7.8
2020-Jan-28 20:15 316 2 gusting 6 7.8
2020-Jan-28 20:00 355 2 gusting 7 7.8
2020-Jan-28 19:45 304 0 gusting 7 7.2
2020-Jan-28 19:30 298 2 gusting 7 7.2
2020-Jan-28 19:15 286 2 gusting 7 7.2
2020-Jan-28 19:00 341 2 gusting 7 7.2
2020-Jan-28 18:45 288 2 gusting 12 7.2
2020-Jan-28 18:30 329 2 gusting 8 7.2
2020-Jan-28 18:15 293 2 gusting 11 7.2
2020-Jan-28 18:00 198 1 gusting 7 6.7
2020-Jan-28 17:45 336 1 gusting 8 6.7
2020-Jan-28 17:30 313 3 gusting 10 6.7
2020-Jan-28 17:17 298 1 gusting 9 7.2
2020-Jan-28 17:03 290 4 gusting 12 7.2
2020-Jan-28 16:47 294 1 gusting 8 7.2
2020-Jan-28 16:32 314 3 gusting 8 6.7
2020-Jan-28 16:17 192 3 gusting 9 6.7
2020-Jan-28 16:03 336 2 gusting 9 6.7
2020-Jan-28 15:47 268 3 gusting 9 6.7
2020-Jan-28 15:33 308 2 gusting 9 6.7
2020-Jan-28 15:16 251 3 gusting 9 6.7
2020-Jan-28 15:02 316 1 gusting 8 6.1
2020-Jan-28 14:47 302 3 gusting 7 6.1
2020-Jan-28 14:31 323 1 gusting 5 5.6
2020-Jan-28 14:16 301 5.6
2020-Jan-28 14:02 311 0 gusting 6 5.0
2020-Jan-28 13:46 261 5.0
2020-Jan-28 13:31 308 0 gusting 6 5.0
2020-Jan-28 13:16 305 0 gusting 3 4.4
2020-Jan-28 13:02 273 1 gusting 6 4.4
2020-Jan-28 12:46 311 1 gusting 6 4.4
2020-Jan-28 12:32 290 0 gusting 6 4.4
2020-Jan-28 12:16 300 1 gusting 6 4.4
2020-Jan-28 12:01 298 1 gusting 6 4.4
2020-Jan-28 11:46 279 4.4
2020-Jan-28 11:31 277 1 gusting 8 4.4
2020-Jan-28 11:15 360 2 gusting 6 4.4
2020-Jan-28 11:01 332 2 gusting 6 4.4
2020-Jan-28 10:46 305 2 gusting 6 4.4
2020-Jan-28 10:31 309 1 gusting 6 4.4
2020-Jan-28 10:16 318 4.4
2020-Jan-28 10:00 297 1 gusting 6 4.4
2020-Jan-28 09:46 314 0 gusting 4 4.4
2020-Jan-28 09:30 282 0 gusting 6 4.4
2020-Jan-28 09:15 323 1 gusting 4 4.4
2020-Jan-28 09:01 331 4 gusting 8 4.4
2020-Jan-28 08:45 305 2 gusting 6 4.4
2020-Jan-28 08:31 309 2 gusting 6 5.0
2020-Jan-28 08:15 346 0 gusting 6 5.0
2020-Jan-28 08:01 015 1 gusting 6 5.0
2020-Jan-28 07:45 286 1 gusting 5 5.0
2020-Jan-28 07:30 265 1 gusting 6 5.0
2020-Jan-28 07:15 249 2 gusting 6 5.0
2020-Jan-28 07:00 330 1 gusting 5 5.0
2020-Jan-28 06:45 298 1 gusting 6 5.0
2020-Jan-28 06:30 318 1 gusting 7 5.0
2020-Jan-28 06:15 322 0 gusting 6 5.0
2020-Jan-28 06:00 306 1 gusting 6 5.0
2020-Jan-28 05:47 304 0 gusting 5 5.0
2020-Jan-28 05:31 294 0 gusting 7 5.0
2020-Jan-28 05:18 323 0 gusting 7 5.6
2020-Jan-28 05:02 289 0 gusting 7 5.6
2020-Jan-28 04:47 240 1 gusting 7 5.6
2020-Jan-28 04:32 281 2 gusting 9 5.6
2020-Jan-28 04:16 181 5.6
2020-Jan-28 04:03 296 5.6
2020-Jan-28 03:46 203 5.6
2020-Jan-28 03:31 261 5.6
2020-Jan-28 03:02 288 5.6
2020-Jan-28 02:46 296 0 gusting 7 5.6
2020-Jan-28 02:32 256 0 gusting 3 5.6
2020-Jan-28 02:17 315 5.6
2020-Jan-28 02:02 299 5.6
2020-Jan-28 01:32 278 2 gusting 7 6.1
2020-Jan-28 01:17 302 2 gusting 9 6.7
2020-Jan-28 01:02 293 0 gusting 7 6.7
2020-Jan-28 00:46 355 1 gusting 5 6.7
2020-Jan-28 00:31 329 1 gusting 6 6.7
2020-Jan-28 00:16 313 2 gusting 10 6.7
2020-Jan-28 00:01 319 1 gusting 7 6.7
2020-Jan-27 23:46 283 2 gusting 7 7.2
2020-Jan-27 23:32 349 2 gusting 7 7.2
2020-Jan-27 23:17 284 0 gusting 6 7.8
2020-Jan-27 23:01 321 1 gusting 5 7.8
2020-Jan-27 22:46 342 2 gusting 6 7.8
2020-Jan-27 22:33 312 2 gusting 9 8.3
2020-Jan-27 22:18 306 0 gusting 8 8.3
2020-Jan-27 22:01 302 1 gusting 6 8.3
2020-Jan-27 21:47 305 2 gusting 5 8.9
2020-Jan-27 21:32 242 1 gusting 6 9.4
2020-Jan-27 21:16 297 1 gusting 6 9.4
2020-Jan-27 21:01 286 0 gusting 3 9.4
2020-Jan-27 20:46 315 0 gusting 3 9.4
2020-Jan-27 20:31 159 9.4
2020-Jan-27 20:15 296 2 gusting 6 9.4
2020-Jan-27 20:01 315 9.4
2020-Jan-27 19:46 328 1 gusting 8 9.4
2020-Jan-27 19:31 287 1 gusting 6 10.0
2020-Jan-27 19:16 134 9.4
2020-Jan-27 19:01 173 0 gusting 3 9.4
2020-Jan-27 18:46 295 1 gusting 4 10.0
2020-Jan-27 18:31 309 0 gusting 5 10.0
2020-Jan-27 18:16 180 1 gusting 4 10.0
2020-Jan-27 18:02 134 0 gusting 3 10.0
2020-Jan-27 17:47 166 9.4
2020-Jan-27 17:30 194 0 gusting 6 10.0
2020-Jan-27 17:15 146 1 gusting 4 10.0
2020-Jan-27 17:00 117 0 gusting 3 9.4
2020-Jan-27 16:46 136 1 gusting 6 9.4
2020-Jan-27 16:30 151 1 gusting 4 8.9
2020-Jan-27 16:15 134 1 gusting 3 8.3
2020-Jan-27 16:00 140 1 gusting 2 7.8
2020-Jan-27 15:45 140 0 gusting 2 6.7
2020-Jan-27 15:30 290 6.1
2020-Jan-27 15:15 290 5.6
2020-Jan-27 15:02 290 5.0
2020-Jan-27 14:47 290 4.4
2020-Jan-27 14:32 290 3.9
2020-Jan-27 14:18 290 3.3
2020-Jan-27 14:03 290 2.8
2020-Jan-27 13:46 290 1.7
2020-Jan-27 13:31 290 1.1
2020-Jan-27 13:16 290 0.6
2020-Jan-27 13:02 290 -0.0
2020-Jan-27 12:46 290 -0.0
2020-Jan-27 12:32 290 -0.0
2020-Jan-27 12:17 290 -0.0
2020-Jan-27 12:02 290 -0.0
2020-Jan-27 11:46 290 0.6
2020-Jan-27 11:31 290 0.6
2020-Jan-27 11:18 290 0.6
2020-Jan-27 11:01 290 0.6
2020-Jan-27 10:46 290 1.1
2020-Jan-27 10:31 290 0.6
2020-Jan-27 10:16 290 1.1
2020-Jan-27 10:01 290 0.6
2020-Jan-27 09:46 288 0.6
2020-Jan-27 09:31 288 -0.0
2020-Jan-27 09:17 288 -0.0
2020-Jan-27 09:02 288 -0.0
2020-Jan-27 08:46 288 0.6
2020-Jan-27 08:30 288 1.1
2020-Jan-27 08:16 288 1.1
2020-Jan-27 08:00 288 1.7
2020-Jan-27 07:46 288 1.7
2020-Jan-27 07:31 288 2.2
2020-Jan-27 07:16 288 2.2
2020-Jan-27 07:01 288 2.2
2020-Jan-27 06:46 288 2.2
2020-Jan-27 06:31 288 2.2
2020-Jan-27 06:16 288 1.7
2020-Jan-27 05:45 288 0.6
2020-Jan-27 05:30 288 0.6
2020-Jan-27 05:15 288 0.6
2020-Jan-27 05:00 288 1.1
2020-Jan-27 04:45 288 1.7
2020-Jan-27 04:30 288 1.7
2020-Jan-27 04:15 288 2.2
2020-Jan-27 04:00 288 2.2
2020-Jan-27 03:45 288 2.8
2020-Jan-27 03:30 288 2.8
2020-Jan-27 03:15 288 3.3
2020-Jan-27 03:00 288 4.4
2020-Jan-27 02:45 288 5.0
2020-Jan-27 02:30 288 5.6
2020-Jan-27 02:15 288 5.6
2020-Jan-27 02:00 288 6.1
2020-Jan-27 01:45 291 6.1
2020-Jan-27 01:30 294 6.7
2020-Jan-27 01:15 298 0 gusting 3 6.7
2020-Jan-27 01:00 279 1 gusting 4 6.7
2020-Jan-27 00:45 316 0 gusting 5 6.7
2020-Jan-27 00:30 259 1 gusting 7 6.7
2020-Jan-27 00:15 307 0 gusting 4 7.2
2020-Jan-27 00:00 298 7.2
2020-Jan-26 23:45 237 7.2
2020-Jan-26 23:30 297 1 gusting 4 7.2
2020-Jan-26 23:15 292 7.2
2020-Jan-26 23:00 295 7.2